Location: Chantarel
(45.1638°N, 1.7873°E)
Time: 14:33:40
(UTC+00:00)

Resurs 1-3 - Pass Details

Date: 03 March 2021
Orbit: 629 x 633 km, 97.9° (Epoch: 11 April)

Event Time Altitude Azimuth Distance (km) Brightness Sun altitude
Exits shadow 19:38:49 42° 50° (NE) 913 4.1 -21.1°
Drops below altitude 10° 19:42:28 10° 359° (N) 2,026 6.3 -21.7°
Sets 19:44:44 0° 353° (N) 2,939 7.3 -22.1°
